Weather History for KNHK - October, 2012

Change the Weather History Date:

Saturday, October 20, 2012

  Actual Average Record
Temperature  
Mean Temperature 58 °F -  
Max Temperature 68 °F 65 °F 83 °F (1984)
Min Temperature 51 °F 49 °F 32 °F (1981)
Degree Days  
Heating Degree Days 6    
Growing Degree Days 8 (Base 50)    
Moisture  
Dew Point 46 °F    
Average Humidity 59    
Maximum Humidity 77    
Minimum Humidity 47    
Precipitation  
Precipitation 0.00 in - - ()
Sea Level Pressure  
Sea Level Pressure 29.78 in    
Wind  
Wind Speed 6 mph (West)    
Max Wind Speed 8 mph    
Max Gust Speed -    
Visibility 10 miles    
Events      
Averages and records for this station are not official NWS values.
T = Trace of Precipitation, MM = Missing Value Source: NWS Daily Summary

Daily Weather History Graph

Daily Weather History Graph

Search for Another Location

Airport or City:

Trip Planner

Search our weather history database for the weather conditions in past years. The results will help you decide how hot, cold, wet, or windy it might be!

Date:

Astronomy

Oct. 20, 2012 Rise Set
Actual Time 7:19 AM EDT 6:20 PM EDT
Civil Twilight 6:53 AM EDT 6:47 PM EDT
Nautical Twilight 6:22 AM EDT 7:17 PM EDT
Astronomical Twilight 5:51 AM EDT 7:48 PM EDT
Moon 12:51 PM EDT (10/20) 11:05 PM EDT (10/20)
Length of Visible Light 11h 53m
Length of Day
11h 00m
Waxing Crescent, 34% of the Moon is Illuminated
Oct 20
Waxing Crescent
Oct 21
First Quarter
Oct 29
Full
Nov 6
Last Quarter
Nov 13
New

Hourly Weather History & Observations

Time (EDT) Temp. Dew Point Humidity Pressure Visibility Wind Dir Wind Speed Gust Speed Precip Events Conditions
12:52 AM 62.1 °F 48.9 °F 62% 29.70 in 10.0 mi SSW 8.1 mph - N/A   Clear
1:52 AM 61.0 °F 46.0 °F 58% 29.70 in 10.0 mi SSW 8.1 mph - N/A   Clear
2:52 AM 60.1 °F 44.1 °F 55% 29.69 in 10.0 mi South 6.9 mph - N/A   Clear
3:52 AM 59.0 °F 43.0 °F 55% 29.70 in 10.0 mi South 8.1 mph - N/A   Clear
4:52 AM 57.9 °F 43.0 °F 58% 29.71 in 10.0 mi SSW 6.9 mph - N/A   Clear
5:52 AM 52.0 °F 44.1 °F 74% 29.73 in 10.0 mi SW 6.9 mph - N/A   Clear
6:07 AM 51.8 °F 44.6 °F 76% 29.74 in 10.0 mi West 5.8 mph - N/A   Clear
6:52 AM 51.1 °F 44.1 °F 77% 29.75 in 10.0 mi WSW 3.5 mph - N/A   Partly Cloudy
7:52 AM 54.0 °F 46.0 °F 75% 29.77 in 10.0 mi West 5.8 mph - N/A   Partly Cloudy
8:52 AM 60.1 °F 46.9 °F 62% 29.78 in 10.0 mi WNW 4.6 mph - N/A   Partly Cloudy
9:52 AM 63.0 °F 45.0 °F 52% 29.79 in 10.0 mi NW 8.1 mph - N/A   Partly Cloudy
10:52 AM 64.9 °F 44.1 °F 47% 29.79 in 10.0 mi NW 8.1 mph - N/A   Clear
11:52 AM 66.0 °F 45.0 °F 47% 29.80 in 10.0 mi WNW 4.6 mph - N/A   Clear
12:52 PM 66.9 °F 46.0 °F 47% 29.78 in 10.0 mi NNW 5.8 mph - N/A   Partly Cloudy
1:52 PM 66.0 °F 46.0 °F 48% 29.77 in 10.0 mi ENE 4.6 mph - N/A   Partly Cloudy
2:52 PM 66.0 °F 46.9 °F 50% 29.76 in 10.0 mi ENE 5.8 mph - N/A   Partly Cloudy
3:52 PM 66.0 °F 48.0 °F 52% 29.77 in 10.0 mi ENE 5.8 mph - N/A   Partly Cloudy
4:52 PM 64.9 °F 46.0 °F 50% 29.78 in 10.0 mi SE 4.6 mph - N/A   Mostly Cloudy
5:52 PM 64.0 °F 48.9 °F 58% 29.80 in 10.0 mi Calm Calm - N/A   Mostly Cloudy
6:52 PM 59.0 °F 51.1 °F 75% 29.82 in 10.0 mi WSW 3.5 mph - N/A   Overcast
7:52 PM 57.9 °F 50.0 °F 75% 29.85 in 10.0 mi Calm Calm - N/A   Mostly Cloudy
8:52 PM 61.0 °F 46.9 °F 60% 29.87 in 10.0 mi NNW 8.1 mph - N/A   Mostly Cloudy
9:52 PM 61.0 °F 45.0 °F 56% 29.89 in 10.0 mi NNW 6.9 mph - N/A   Overcast
10:52 PM 60.1 °F 42.1 °F 51% 29.91 in 10.0 mi NW 6.9 mph - N/A   Mostly Cloudy
11:52 PM 59.0 °F 42.1 °F 53% 29.93 in 10.0 mi NW 8.1 mph - N/A   Scattered Clouds